Location: Nasgenstadt
(48.2786°N, 9.7553°E)
Time: 14:28:03
(UTC+01:00)

ISS - Pass Details

Date: 09 January 2018
Orbit: 402 x 406 km, 51.6° (Epoch: 16 January)

Event Time Altitude Azimuth Distance (km) Brightness Sun altitude
Exits shadow 07:22:52 10° 289° (WNW) 1,449 -1.7 -7.7°
Maximum altitude 07:26:05 65° 207° (SSW) 451 -3.6 -7.3°
Drops below altitude 10° 07:29:20 10° 125° (SE) 1,463 0.7 -6.8°
Sets 07:31:25 0° 123° (ESE) 2,321 2.5 -6.5°
